GEFSCGP_850_meantemp_012.txt.gz
Temperature
21 20 20 21 22 22 22 22 22 23 25 24 23 22 23 25 25 24 23 23 24 23 23 23 23 22 22 21 21 20 20 20 19 19 18 18 17 17 18 18 18 18 18 18
20 20 22 23 23 23 23 22 22 23 24 24 23 23 23 23 23 23 22 23 23 23 22 22 22 21 21 21 20 20 19 19 19 19 19 18 17 17 18 18 17 17 17 18
20 21 23 23 23 23 23 22 22 22 23 23 22 21 21 22 23 22 22 23 23 23 22 22 21 21 20 20 19 19 19 19 18 18 18 18 17 17 17 17 17 17 17 17
20 22 23 23 23 23 22 23 23 23 22 20 22 19 20 22 22 21 21 22 23 23 23 22 21 21 20 19 19 19 18 18 18 18 17 17 17 17 17 17 17 17 17 17
21 22 22 22 23 23 22 23 24 24 22 20 20 20 19 20 20 20 20 22 23 23 23 22 22 21 20 19 18 18 17 17 17 17 17 16 16 17 17 17 17 17 16 17
21 22 23 23 24 24 24 23 22 19 18 19 20 19 19 19 20 20 21 22 23 23 22 22 21 20 20 19 18 18 17 17 17 16 16 16 16 16 17 17 16 16 16 16
21 22 23 24 23 24 23 19 18 19 17 18 20 20 19 21 21 21 21 22 23 22 22 22 22 21 20 19 19 18 17 17 17 16 16 16 16 16 16 16 16 16 16 16
19 20 23 23 22 21 21 19 18 18 18 18 21 21 20 22 22 23 23 23 23 22 22 22 22 21 21 20 19 18 18 17 16 16 16 16 16 16 16 16 16 16 16 16
19 20 23 24 23 22 21 19 19 18 19 19 19 21 21 22 21 21 22 23 23 23 23 22 22 21 21 20 19 18 18 17 17 16 16 16 16 16 16 16 16 16 16 16
20 20 22 24 24 23 22 21 18 18 18 18 19 20 19 21 21 21 21 22 23 23 23 22 22 21 21 20 19 18 17 17 17 16 16 16 16 16 16 16 16 16 16 16
20 19 20 22 22 22 22 21 20 18 17 17 17 18 19 20 20 20 21 23 23 23 23 23 22 21 20 19 19 18 17 17 16 16 16 15 15 15 16 16 16 16 16 16
17 16 17 19 20 21 21 20 18 17 17 16 16 17 20 20 21 21 22 23 24 24 23 23 22 21 20 19 19 18 17 17 16 16 16 15 15 15 15 16 16 16 16 16
17 15 16 17 18 19 19 19 17 16 16 16 16 18 20 19 20 22 23 24 24 23 23 23 22 21 20 20 19 19 18 17 17 16 16 15 15 15 15 15 16 16 16 16
17 15 15 17 17 18 18 19 18 16 15 16 16 18 19 20 20 21 23 24 24 23 23 22 22 21 21 20 20 19 19 18 17 16 16 16 15 15 15 15 16 16 16 15
16 15 16 16 18 19 19 19 19 18 17 16 17 18 19 19 19 21 23 23 23 23 22 22 22 21 21 20 20 19 19 18 17 17 16 16 16 16 15 15 15 15 15 15
15 16 16 17 18 18 18 18 19 19 18 18 18 18 19 20 20 21 22 23 23 23 22 22 22 21 21 21 20 19 19 18 17 17 16 16 16 16 15 15 15 15 15 15
15 15 15 15 16 16 16 18 19 19 19 19 18 19 19 19 20 21 23 23 23 23 22 22 21 21 20 20 19 19 19 18 17 17 16 16 16 16 15 15 15 15 15 15
15 15 14 14 15 15 17 17 19 19 19 19 19 19 20 19 21 22 23 23 22 22 22 21 20 19 19 18 18 18 18 17 17 17 16 16 15 15 15 15 15 15 15 15
14 14 13 13 14 15 17 18 18 18 19 20 20 20 20 21 20 20 22 22 22 21 21 20 19 18 18 17 18 18 17 17 17 17 16 16 16 15 15 15 15 15 14 14
13 13 13 13 14 15 17 19 19 19 19 20 20 20 20 19 17 18 20 21 21 20 20 19 18 17 16 16 16 16 16 16 16 16 16 16 15 15 15 15 14 14 14 14
13 13 13 13 14 15 17 18 19 19 19 21 22 22 21 19 20 21 20 20 20 20 19 18 17 16 16 15 15 15 15 15 15 15 15 15 15 14 14 14 14 13 13 13
14 14 13 13 13 15 18 18 19 20 21 22 23 23 23 22 22 21 20 19 19 19 17 16 16 15 15 15 14 14 14 13 13 13 13 13 13 13 13 13 13 13 13 12
14 14 13 14 14 16 17 18 20 22 23 23 23 23 22 22 21 20 19 19 18 17 16 16 15 15 15 14 14 14 13 13 12 12 12 12 12 12 12 12 12 12 12 12
13 12 13 14 15 15 16 18 19 22 23 23 23 22 22 21 21 20 19 18 17 16 16 15 15 15 14 14 14 13 13 12 12 11 11 11 11 11 11 12 12 12 12 12
12 11 12 13 13 14 16 16 18 21 22 23 22 22 22 21 21 20 19 18 17 16 16 16 15 15 14 14 14 13 12 12 11 11 11 10 10 10 11 11 11 11 11 12
12 12 12 12 13 13 14 15 17 19 21 22 22 22 21 21 21 20 19 18 17 16 16 16 15 15 14 14 13 13 12 12 11 11 11 10 10 10 10 11 11 11 11 11

GEFSCGP_850_meantemp_018.txt.gz
Temperature
19 18 18 18 18 19 19 19 20 21 22 22 21 21 21 22 22 22 22 23 22 22 22 22 23 23 22 22 21 21 20 20 20 20 19 19 18 18 18 17 17 17 17 17
19 18 19 19 19 19 19 19 19 20 22 22 21 21 21 20 21 22 22 22 21 22 22 22 22 22 22 21 21 21 20 20 20 19 19 19 18 18 18 17 17 17 17 17
19 20 20 20 20 19 19 19 19 20 21 21 21 20 20 21 21 21 21 21 21 22 23 22 22 21 21 21 20 20 20 19 19 19 18 18 18 17 17 17 17 17 17 17
19 20 20 20 20 20 19 20 20 20 20 19 20 18 19 19 19 19 19 19 20 22 22 22 21 21 21 20 20 19 19 19 18 18 18 17 17 17 17 17 17 17 17 17
19 20 20 20 20 21 20 21 20 20 19 18 18 18 17 18 19 19 18 19 21 22 22 22 21 21 21 20 20 19 19 18 18 17 17 17 17 17 16 16 16 16 16 16
19 20 20 20 21 21 21 20 19 17 17 17 18 17 17 17 19 20 19 20 21 22 22 21 21 21 20 20 19 19 19 18 18 17 17 16 16 16 16 16 16 16 16 16
19 19 20 21 21 21 20 19 17 17 16 16 18 18 17 19 19 19 19 21 22 22 22 22 22 21 21 20 20 19 19 18 18 17 17 16 16 15 15 15 15 15 15 15
18 18 20 20 20 20 19 18 17 17 17 17 18 17 18 20 20 20 21 23 23 22 22 22 22 22 21 20 20 19 18 18 17 17 16 16 15 15 15 15 15 15 15 15
18 18 20 21 21 20 19 17 19 17 17 17 17 18 19 21 21 20 21 22 22 23 23 23 22 22 21 21 20 19 18 18 17 17 16 16 15 15 15 15 15 15 15 15
17 17 18 20 21 20 19 17 16 16 16 16 17 18 18 20 21 21 20 21 23 23 23 23 23 22 22 21 20 19 18 18 17 17 16 16 15 15 15 15 15 15 15 15
15 16 16 18 19 19 19 18 16 15 16 16 16 17 18 19 19 19 19 22 23 23 23 23 23 22 22 21 20 19 18 18 17 17 16 16 15 15 15 15 15 15 15 15
14 13 14 16 17 17 17 17 16 16 16 15 15 16 19 18 18 18 20 21 22 23 23 23 23 22 22 21 20 20 19 18 17 17 16 16 15 15 15 15 15 15 15 15
14 14 15 16 16 16 16 16 15 14 14 14 14 16 18 17 18 19 20 22 22 23 23 23 23 22 22 21 21 20 19 18 17 17 16 16 15 15 15 15 15 15 14 14
14 14 15 16 16 16 16 16 15 14 13 14 14 16 17 18 18 19 21 22 22 23 23 23 23 22 22 22 21 20 19 18 17 17 16 16 16 15 15 15 15 14 14 14
14 14 14 15 16 16 16 16 16 15 14 14 15 16 17 17 18 19 21 21 22 22 23 23 23 23 22 21 21 20 19 18 18 17 17 17 16 16 15 15 15 14 14 14
13 14 15 15 16 15 15 16 16 16 16 15 15 16 17 18 19 19 20 21 21 22 23 23 22 22 22 21 21 20 19 18 18 17 17 17 16 16 15 15 15 15 15 14
13 13 14 13 14 15 15 16 16 16 16 16 16 17 17 17 17 18 20 21 21 22 22 22 22 22 21 21 20 19 19 18 17 17 17 17 16 16 16 15 15 15 15 14
13 12 12 12 14 15 16 16 16 16 16 16 16 16 17 17 19 20 20 21 21 22 22 21 21 21 20 20 19 19 18 18 17 17 17 16 16 16 16 15 15 15 14 14
12 12 11 12 13 14 15 16 16 15 15 16 16 16 17 18 18 19 20 21 21 21 21 20 20 20 19 19 18 18 17 17 17 17 16 16 16 15 15 15 15 14 14 14
11 11 12 12 13 14 15 15 16 16 16 16 15 16 17 17 17 18 20 20 21 20 20 19 19 19 18 17 17 16 16 16 16 16 16 16 15 15 15 15 14 14 14 14
12 12 12 12 13 14 13 14 15 14 13 14 14 15 16 16 18 19 19 20 19 19 19 18 18 17 16 16 15 15 15 14 14 14 14 14 15 15 15 14 14 14 13 13
11 12 12 12 12 13 12 13 13 13 13 13 13 14 16 18 19 19 18 18 18 18 18 17 17 16 15 14 14 14 13 13 13 13 13 13 13 13 14 14 14 13 13 13
10 10 10 11 12 12 11 12 12 12 12 12 13 14 15 17 18 18 17 17 18 18 17 16 16 15 14 14 13 13 13 12 12 12 12 12 12 12 12 12 12 12 12 12
10 10 10 10 11 11 11 12 12 12 11 12 13 14 16 16 17 18 17 17 17 17 16 16 15 14 14 13 13 13 12 12 12 11 11 11 11 11 11 11 11 12 12 12
9 9 9 10 11 11 11 11 11 12 12 12 13 15 16 17 18 18 18 18 17 17 16 15 15 14 14 14 13 13 12 12 11 11 11 11 10 10 11 11 11 11 11 11
8 9 9 9 11 10 11 11 11 11 12 12 13 15 17 17 18 18 18 18 17 17 16 15 15 14 14 14 13 13 12 11 11 11 11 11 10 10 10 10 11 11 11 11

GEFSCGP_850_meantemp_024.txt.gz
Temperature
21 22 22 23 23 24 24 24 25 25 24 24 25 26 26 27 27 27 27 28 28 27 25 23 23 23 22 22 21 20 20 19 19 19 19 19 18 18 18 17 17 17 16 16
22 22 22 22 22 22 23 23 24 24 23 23 24 24 26 26 27 27 27 27 27 26 24 23 22 22 22 22 21 20 19 19 19 19 19 19 18 18 17 17 17 17 16 16
22 22 22 21 21 21 21 21 22 22 22 22 22 23 25 26 27 26 25 25 25 24 24 23 22 22 22 21 21 20 19 19 19 18 18 18 18 18 17 17 17 17 17 16
22 22 21 21 21 21 20 21 21 21 21 21 22 22 25 26 26 27 26 25 24 23 23 23 22 22 21 21 21 20 20 19 19 18 18 18 17 17 17 17 17 17 17 16
23 22 22 21 21 21 20 19 19 19 19 20 21 21 24 26 26 27 26 25 23 23 23 22 22 21 21 21 21 20 19 19 19 18 18 17 17 16 16 16 16 16 16 16
24 24 23 23 23 22 20 19 19 19 20 20 22 22 24 26 26 26 26 24 23 23 23 22 21 21 21 21 21 20 20 19 19 18 17 17 16 16 16 16 16 16 16 16
24 24 24 23 22 22 21 20 19 20 20 21 23 23 24 26 26 26 25 25 23 23 22 22 22 21 21 21 20 20 20 19 19 18 17 17 16 16 16 16 16 16 16 16
23 23 24 24 23 23 22 22 20 20 21 22 22 23 25 26 25 24 24 24 24 23 22 22 22 21 21 20 20 20 19 19 18 18 17 17 16 16 15 15 15 15 15 15
22 23 24 24 24 24 23 22 23 22 22 22 23 24 25 26 26 25 25 24 24 23 23 22 22 21 21 20 20 20 19 18 18 18 17 17 16 16 15 15 15 15 15 15
21 21 23 23 23 23 23 23 22 22 21 22 23 23 24 25 25 25 26 25 24 24 24 23 22 21 21 21 20 20 19 18 18 17 17 17 16 15 15 15 15 15 15 15
20 20 21 22 22 22 22 21 22 22 22 21 21 23 24 24 24 24 25 25 24 24 24 23 22 22 21 21 21 20 20 18 18 17 17 16 16 16 15 15 15 15 15 15
20 19 19 21 21 20 20 21 20 19 20 20 20 22 24 24 24 24 24 23 23 23 23 23 22 22 22 22 21 21 20 19 18 18 17 16 16 16 15 15 15 15 15 15
19 18 17 19 19 19 19 19 20 20 20 20 20 22 24 24 24 23 23 23 23 22 22 22 22 21 21 21 21 21 20 19 19 18 17 17 16 16 15 15 15 15 15 15
17 17 16 16 17 17 18 18 19 19 19 20 20 22 23 23 23 23 22 22 22 22 22 22 21 21 21 21 21 20 20 19 19 18 18 17 16 16 15 15 15 15 15 15
17 17 17 17 17 17 17 18 19 19 20 20 20 21 21 21 20 21 21 21 21 22 22 22 21 21 21 21 20 19 19 19 19 19 18 17 16 16 16 15 15 14 14 14
17 16 16 16 17 17 18 19 19 19 20 19 19 20 20 18 19 20 21 21 21 21 21 21 21 20 20 20 19 19 19 19 18 18 18 17 17 16 16 15 15 14 14 14
16 15 15 15 16 17 18 18 19 18 18 18 17 17 17 18 19 19 20 20 20 20 20 19 19 19 19 19 18 18 18 18 18 17 17 17 16 16 16 16 15 15 15 14
15 15 15 15 16 16 17 18 18 18 17 16 16 16 16 17 18 19 18 18 19 19 18 18 18 17 17 17 17 17 17 17 17 17 16 16 16 16 16 16 15 15 15 15
15 14 14 14 15 17 16 15 15 16 16 16 15 16 15 16 21 21 17 16 17 17 16 17 17 17 17 17 17 17 17 16 16 16 16 16 16 16 16 15 15 15 15 15
14 14 13 13 13 14 12 13 14 16 16 14 14 15 15 15 19 19 16 15 15 15 16 16 17 17 18 17 16 16 15 15 15 15 15 15 15 15 15 15 15 15 15 14
14 14 13 13 13 12 10 12 15 14 12 12 13 14 14 14 15 15 15 15 14 15 15 16 16 17 16 15 15 15 14 13 13 13 13 14 14 14 14 14 14 14 14 14
12 12 12 11 11 10 10 11 10 10 10 11 12 13 13 13 14 15 15 14 14 14 15 15 16 16 15 14 14 13 13 12 12 12 12 12 12 12 12 13 13 13 13 13
13 12 12 11 11 11 10 10 9 9 9 11 11 12 13 13 14 15 15 15 15 14 14 14 15 14 14 14 13 13 13 12 12 11 11 11 11 11 12 12 12 12 12 12
13 13 13 13 13 12 11 10 9 9 9 10 11 12 12 13 14 15 15 15 15 15 14 14 14 14 14 13 13 13 12 12 11 11 11 11 11 11 11 11 11 11 11 11
12 12 12 12 12 11 11 10 9 8 9 9 10 11 12 13 14 15 15 16 15 15 15 14 14 14 14 13 13 13 12 12 11 11 11 11 11 11 11 11 11 11 11 11
11 11 10 10 11 10 10 9 8 8 8 9 10 11 12 13 14 14 15 15 15 15 15 15 14 14 14 14 13 13 13 12 11 11 11 11 10 10 10 10 11 11 11 11

GEFSCGP_850_meantemp_030.txt.gz
Temperature
25 25 24 24 25 25 25 25 25 26 24 24 25 25 27 28 28 28 29 29 29 29 29 28 28 27 26 26 25 25 24 23 22 21 20 20 20 19 19 19 19 19 19 18
25 24 25 25 25 25 25 24 24 24 24 23 23 24 26 27 28 28 28 28 28 28 28 27 26 26 25 25 24 24 23 22 22 21 20 20 19 19 19 19 18 18 18 18
24 25 25 25 24 24 24 23 22 22 22 23 22 23 25 26 27 27 27 28 28 28 27 26 25 25 24 24 23 23 22 22 21 20 20 19 19 18 18 18 18 18 18 18
25 26 25 25 24 24 23 23 22 22 21 21 21 21 23 25 26 26 27 27 27 27 27 25 25 24 23 23 22 22 21 21 20 20 19 19 18 18 18 18 18 18 18 18
26 26 25 25 25 24 23 23 22 21 21 20 21 20 22 25 25 26 26 27 27 27 26 25 24 24 23 22 22 21 21 20 20 19 19 18 18 18 18 18 18 18 17 17
27 27 27 26 26 25 24 23 22 21 21 20 22 21 22 24 25 26 27 27 27 26 26 25 24 23 22 22 21 21 21 20 20 19 19 18 18 18 17 17 17 17 17 17
26 27 28 27 25 25 24 22 21 20 19 21 23 22 23 25 26 26 27 27 26 26 25 24 23 23 22 22 21 21 20 20 20 19 19 19 18 18 17 17 17 17 17 17
24 24 26 26 25 24 24 23 21 20 20 21 21 22 24 26 26 27 27 26 26 25 25 24 23 22 22 21 21 21 21 20 19 19 19 19 19 18 17 17 17 17 17 16
22 22 25 25 25 24 23 23 24 22 22 21 22 23 24 24 25 26 26 26 25 25 24 24 23 23 22 21 21 21 21 20 20 19 19 19 19 18 18 17 17 17 16 16
22 21 22 24 24 24 23 23 23 21 19 20 22 22 20 20 22 24 24 24 24 24 24 23 23 23 22 22 21 21 21 20 20 19 19 19 19 18 17 17 17 17 16 16
21 20 21 22 22 22 22 21 21 20 20 19 19 19 19 18 19 20 21 22 22 22 22 22 23 23 22 22 22 21 21 20 20 19 19 19 19 18 17 17 17 16 16 16
20 19 18 20 22 20 20 18 18 17 18 18 18 18 18 17 18 19 21 21 21 22 22 22 22 22 23 23 22 22 21 20 20 20 19 19 19 18 17 17 17 16 16 16
19 18 17 17 19 17 16 16 17 17 18 17 17 17 17 17 18 19 20 21 22 22 23 23 23 23 23 23 23 22 21 21 20 20 19 19 19 18 18 17 17 16 16 16
19 18 17 15 16 15 15 15 16 17 16 16 16 16 16 17 18 19 20 21 22 22 23 23 23 23 23 23 23 22 22 21 20 19 19 19 19 18 18 17 17 16 16 16
19 17 18 18 18 17 16 16 17 17 17 16 16 16 16 17 18 19 20 20 21 22 22 22 23 23 23 22 22 22 22 21 21 20 19 19 18 18 18 17 17 16 16 16
19 17 17 17 18 17 16 15 16 17 17 16 16 15 17 18 18 19 19 20 20 21 21 22 22 22 22 22 21 21 21 21 20 20 19 19 18 18 17 17 16 16 16 16
18 17 16 16 17 17 13 12 13 14 14 15 15 15 17 17 18 18 18 18 19 20 20 20 21 21 21 20 20 20 20 20 20 19 19 18 18 17 17 16 16 16 16 16
18 17 16 15 15 13 10 11 12 13 13 14 14 15 16 16 17 17 17 17 17 18 18 18 19 19 19 19 19 19 19 18 18 18 18 17 17 16 16 16 16 15 15 15
18 17 15 14 13 11 11 11 12 12 13 12 13 14 14 15 17 17 16 16 17 17 17 17 18 18 18 18 18 18 18 17 17 17 16 16 16 15 15 15 15 15 15 15
18 17 15 14 12 11 10 12 13 14 13 11 12 13 13 14 14 15 16 16 17 16 17 17 17 17 17 17 17 17 16 15 15 14 14 14 14 14 14 14 14 14 14 14
16 16 15 14 12 11 12 13 13 12 10 10 11 12 12 13 13 14 16 16 16 16 16 16 16 16 16 16 16 15 14 14 13 13 13 13 13 13 13 13 13 13 13 14
15 14 14 14 12 12 13 13 12 11 11 11 11 11 12 12 13 14 16 16 17 16 16 16 16 15 15 15 15 14 13 13 13 12 12 12 12 12 12 12 12 12 13 13
15 14 14 14 13 14 13 13 12 11 11 10 10 11 11 12 13 14 15 17 17 17 16 16 16 15 15 14 14 13 13 13 13 13 12 12 12 12 12 12 12 12 12 12
16 15 15 14 14 14 13 13 12 11 11 10 11 11 11 12 13 14 15 17 17 17 16 16 16 16 15 15 14 13 13 13 13 13 13 12 12 12 12 12 11 11 11 12
15 15 14 14 14 14 13 12 12 11 11 11 11 11 12 12 13 14 15 16 17 17 17 16 16 16 16 15 14 14 13 13 13 13 13 12 12 12 11 11 11 11 11 11
16 15 14 13 13 13 13 12 12 11 11 11 11 11 12 13 13 14 15 16 17 17 17 16 16 16 16 15 15 14 14 13 13 13 12 12 12 11 11 11 11 11 11 11

GEFSCGP_850_meantemp_036.txt.gz
Temperature
23 20 20 20 21 21 21 21 20 21 21 21 20 20 21 22 22 22 23 24 25 25 26 26 26 26 25 25 24 23 23 22 22 21 21 20 20 20 20 19 19 19 18 18
20 20 21 22 22 22 21 20 20 20 20 21 20 19 20 20 21 22 23 23 24 25 26 26 26 26 25 25 24 24 23 22 22 21 21 21 20 20 19 19 19 19 18 18
21 21 23 23 22 22 21 20 20 20 20 20 19 18 19 20 21 21 22 23 24 24 25 25 25 25 25 25 24 24 23 22 22 21 21 20 20 19 19 19 19 19 18 18
21 22 23 22 22 22 20 21 20 20 18 17 18 16 17 18 18 19 20 21 23 24 24 24 24 24 24 24 24 23 23 22 21 21 20 20 20 19 19 19 19 18 18 18
21 22 21 21 21 21 20 20 20 19 18 17 17 16 17 17 17 18 19 20 22 23 23 23 24 24 23 23 23 23 22 22 21 21 20 20 20 19 19 19 18 18 18 18
20 21 21 21 21 21 20 19 18 16 15 16 17 16 16 16 16 17 18 19 20 21 22 23 23 23 22 22 22 22 22 21 21 20 20 20 19 19 19 18 18 18 18 18
19 20 21 21 20 19 18 17 16 16 15 15 17 17 16 16 16 16 16 17 18 20 20 21 22 22 22 22 22 22 22 21 21 20 20 20 19 19 19 18 18 18 17 17
17 17 19 20 19 18 18 17 16 15 15 15 17 17 16 16 16 16 16 16 16 17 19 19 20 21 21 21 21 22 22 21 21 20 20 19 19 19 18 18 18 17 17 17
16 16 18 19 19 18 17 16 16 15 15 15 16 16 16 16 16 16 15 15 15 16 17 18 19 20 20 21 21 21 21 21 21 20 20 19 19 19 18 18 18 17 17 17
16 15 16 18 18 17 16 15 13 14 15 15 15 15 14 14 14 15 15 15 15 15 16 17 17 19 20 20 21 21 21 21 21 20 20 20 19 19 18 18 18 17 17 17
15 14 14 15 14 14 14 14 13 13 13 14 14 14 14 13 14 14 14 15 15 15 16 16 17 18 19 20 20 20 20 20 20 20 20 19 19 19 18 18 18 17 17 17
14 12 12 13 15 16 14 13 13 13 13 13 13 13 14 13 14 14 14 14 15 16 16 17 17 18 19 19 20 20 20 20 20 20 19 19 19 19 18 18 18 17 17 16
15 12 11 12 13 14 13 13 13 12 12 13 13 13 14 13 14 14 14 14 15 16 16 17 18 18 19 19 20 20 20 20 19 19 19 19 19 18 18 18 17 17 17 16
15 12 12 12 12 12 12 12 13 12 12 13 13 13 13 13 14 14 14 15 15 15 16 17 18 18 19 19 19 19 19 19 19 19 19 18 18 18 18 17 17 17 17 16
13 13 13 13 12 12 12 12 13 13 13 13 12 12 12 13 13 14 14 14 15 15 15 16 17 18 18 18 18 19 19 19 18 18 18 18 17 17 17 17 17 17 17 16
12 12 13 12 12 12 12 11 12 12 12 12 12 12 12 13 13 13 13 14 14 14 15 16 16 17 17 17 18 18 18 18 18 18 18 17 17 17 17 17 16 16 16 16
11 12 12 11 12 12 11 10 11 11 11 11 11 11 12 12 13 13 13 13 14 14 15 16 16 16 16 16 17 17 17 17 17 17 17 16 16 16 16 16 16 16 16 16
12 11 10 10 11 11 10 11 11 11 11 11 11 11 11 11 12 13 13 13 14 15 15 15 16 16 16 16 16 16 16 16 16 16 15 15 15 15 15 16 15 15 15 15
11 11 10 10 10 11 11 11 11 11 11 10 10 11 11 11 13 14 14 13 14 15 15 15 16 16 16 16 15 16 15 15 15 14 14 14 14 14 14 15 15 15 14 15
11 9 9 9 10 10 10 11 12 11 10 10 10 10 10 10 10 11 13 14 14 15 15 15 15 15 15 15 15 15 14 14 13 13 13 13 13 13 13 13 13 13 14 14
10 9 9 9 10 10 11 11 11 10 9 10 10 10 10 9 10 11 13 14 15 15 15 15 15 15 15 15 14 14 13 13 13 12 12 12 12 12 12 12 12 12 13 13
10 9 9 9 9 10 11 11 10 10 11 10 10 10 10 10 11 12 13 14 15 15 15 15 15 15 15 15 14 14 13 13 13 12 12 12 12 12 12 12 12 12 12 12
10 10 9 9 9 11 12 11 11 11 11 11 11 11 11 11 12 13 13 14 15 15 15 15 15 15 15 15 14 14 13 13 13 13 12 12 12 12 12 12 12 12 12 12
11 12 10 10 11 12 12 12 12 12 11 11 11 11 11 12 12 13 13 14 15 15 15 16 16 15 15 15 14 14 14 13 13 13 12 12 12 12 12 11 11 11 11 12
11 11 10 10 11 12 12 12 12 12 12 12 12 12 12 12 12 13 13 14 15 15 15 16 16 15 15 15 15 14 14 13 13 12 12 12 12 11 11 11 11 11 11 11
11 10 9 9 11 11 12 12 12 12 12 12 12 12 12 12 12 13 13 14 14 15 15 16 16 16 15 15 15 15 14 14 13 13 12 12 11 11 11 11 11 11 11 11